Regional Weather Roundup
Issued by NWS

Home | Current Version | Previous Version | Graphics & Text | Print | Product List | Glossary On
Versions: 1 2 3 4 5 6 7 8 9 10 11 12 13 14 15 16 17 18 19 20 21 22 23 24 25 26 27 28 29 30 31 32 33 34 35 36 37 38 39 40 41 42 43 44 45 46 47 48 49 50
199
ASUS45 KBOU 270010
RWRCO

WEATHER ROUNDUP FOR COLORADO
NATIONAL WEATHER SERVICE DENVER/BOULDER CO
600 PM MDT MON SEP 26 2016

NOTE: "FAIR" INDICATES FEW OR NO CLOUDS BELOW 12000 FEET WITH NO
SIGNIFICANT WEATHER AND/OR OBSTRUCTIONS TO VISIBILITY.

COZ001>005-013-030-031-270100-
...NORTHWEST COLORADO...

CITY           SKY/WX    TMP DP  RH WIND       PRES   REMARKS
CRAIG          FAIR      70  29  21 SW6       30.36F
HAYDEN         FAIR      68  28  22 W8        30.37F
MEEKER         FAIR      70  34  26 SW7       30.35F
MOUNT WERNER   NOT AVBL
STEAMBOAT SPGS FAIR      68  30  24 SW7       30.39S
WALDEN           N/A     64  28  25 NW8       30.45F
$$

COZ006>008-011-270100-
...WEST CENTRAL VALLEYS...

CITY           SKY/WX    TMP DP  RH WIND       PRES   REMARKS
GRAND JUNCTION FAIR      74  36  25 W8        30.25F
MONTROSE       FAIR      71  36  27 W7        30.31F
EAGLE          SUNNY     75  27  16 W7        30.34F
RIFLE          FAIR      74  35  24 W9        30.28F
DELTA          NOT AVBL
NUCLA          FAIR      73  23  15 N5        30.33F
$$

COZ017>023-064>068-270100-
...SOUTHWEST COLORADO...

CITY           SKY/WX    TMP DP  RH WIND       PRES   REMARKS
DURANGO        FAIR      70  27  20 W7        30.33F
CORTEZ         FAIR      73  39  29 S9        30.29F
PAGOSA SPRINGS FAIR      69  28  22 W6        30.40S
TELLURIDE      FAIR      62  32  32 W16       30.49F
WOLF CREEK PAS FAIR      46  30  53 SW12G20   30.68F
$$

COZ009-010-012-014-032>034-037-058>063-270100-
...CENTRAL COLORADO...

CITY           SKY/WX    TMP DP  RH WIND       PRES   REMARKS
ASPEN          FAIR      68  31  25 N6        30.40S
BUENA VISTA    FAIR      69  24  18 S5        30.37S
COPPER MTN     FAIR      54  18  24 NW14      30.69S
BERTHOUD PASS  FAIR      43  30  61 N15G21    30.71F
COTTONWOOD PAS CLOUDY    64  19  17 SE13      30.51S
GUNNISON       FAIR      70  32  24 W8        30.37F
KREMMLING      FAIR      70  18  13 NW6       30.40F
LEADVILLE      FAIR      60  21  22 N13G23    30.51S
SALIDA         FAIR      73  20  13 SE14      30.42S
SUNLIGHT       FAIR      54  30  40 NW6       30.64F
WILKERSON PASS FAIR      48  21  34 E8        30.66S
$$

COZ069>075-270100-
...SAN LUIS VALLEY/SANGRE DE CRISTO MOUNTAINS...

CITY           SKY/WX    TMP DP  RH WIND       PRES   REMARKS
ALAMOSA        FAIR      70  20  15 SE8       30.37F
LA VETA PASS   NOT AVBL
SAGUACHE       NOT AVBL
$$

COZ035-036-038>040-270100-
...NORTHERN COLORADO FRONT RANGE...

CITY           SKY/WX    TMP DP  RH WIND       PRES   REMARKS
DENVER INTL AP FAIR      73  29  19 E6        30.30F
DMNS CITY PARK   N/A     72  30  21 E9G54     30.30S
AURORA         PTCLDY    72  29  20 E9        30.32S
FRONT RANGE AP PTCLDY    73  28  19 NE7       30.32S
ERIE MUNI ARPT FAIR      74  26  16 NE3       30.28F
BOULDER MUN AP FAIR      73  32  21 NE3       30.30S
CENTENNIAL     FAIR      72  28  19 NE8       30.32S
BROOMFIELD     PTCLDY    73  28  19 NE6       30.32F
FORT COLLINS   FAIR      73  32  21 S6        30.26S
LONGMONT       FAIR      76  32  19 E3        30.30F
$$

COZ041-046-047-076>085-087-088-270100-
...PIKES PEAK/PALMER DIVIDE AND SOUTHERN FOOTHILLS...

CITY           SKY/WX    TMP DP  RH WIND       PRES   REMARKS
COLO. SPRINGS  FAIR      71  25  17 S9        30.35S
A. F. ACADEMY  FAIR      70  26  19 S13       30.35S
SCHRIEVER AFB  NOT AVBL
ELLICOTT       NOT AVBL
FALCON         FAIR      69  25  19 S10       30.39S
FORT CARSON    FAIR      72  28  19 SE14      30.32S
LIMON          FAIR      72  30  21 NE9       30.31S
MONUMENT HILL  FAIR      64  30  27 E9        30.40S
TRINIDAD       FAIR      73  31  21 E6        30.30F
$$

COZ042>045-048>051-090-091-270100-
...NORTHEAST COLORADO...

CITY           SKY/WX    TMP DP  RH WIND       PRES   REMARKS
GREELEY ARPT   FAIR      75  36  23 S5        30.27F
AKRON          FAIR      73  35  25 N7        30.27S
BURLINGTON     FAIR      75  32  20 N8        30.26S
WRAY           FAIR      75  36  23 N10       30.23F
STERLING       FAIR      73  39  29 NE8       30.23S
HOLYOKE        FAIR      73  37  27 N10       30.24S
FORT MORGAN    FAIR      75  32  20 NE3       30.26S
$$

COZ086-089-092>099-270100-
...SOUTHEAST COLORADO...

CITY           SKY/WX    TMP DP  RH WIND       PRES   REMARKS
PUEBLO         FAIR      76  30  18 SE10      30.26S
LA JUNTA       FAIR      77  31  18 E8        30.25F
LAMAR          FAIR      78  33  19 E6        30.22S
SPRINGFIELD    NOT AVBL
$$




USA.gov is the U.S. government's official web portal to all federal, state and local government web resources and services.